GW4602 Weather Reports


time (UTC)temp
C
wind
direction
speed
KPH
gust
KPH
rain 1hr
cm
rain 24hr
cm
rain mn
cm
humidity
%
barometer
mb
20260508102240 2 110 0.0 0.0 0.00 0.00 0.00 99 1020.3
20260508101737 2 108 0.0 0.0 0.00 0.00 0.00 99 1020.2
20260508101234 2 130 0.0 0.0 0.00 0.00 0.00 99 1020.1
20260508100732 2 117 0.0 0.0 0.00 0.00 0.00 99 1020.1
20260508100230 2 115 3.2 3.2 0.00 0.00 0.00 99 1020.1
20260508095725 2 106 0.0 1.6 0.00 0.00 0.00 99 1019.9
20260508095224 2 116 1.6 1.6 0.00 0.00 0.00 99 1019.9
20260508094720 2 116 0.0 0.0 0.00 0.00 0.00 99 1019.7
20260508094217 2 112 0.0 1.6 0.00 0.00 0.00 99 1019.8
20260508093714 2 121 0.0 0.0 0.00 0.00 0.00 99 1019.9
20260508093212 2 115 0.0 0.0 0.00 0.00 0.00 99 1019.7
20260508092708 2 113 0.0 0.0 0.00 0.00 0.00 99 1019.6
20260508092207 2 115 1.6 3.2 0.00 0.00 0.00 99 1019.9
20260508091704 2 104 0.0 3.2 0.00 0.00 0.00 99 1019.6
20260508091201 2 111 0.0 0.0 0.00 0.00 0.00 99 1019.4
20260508090659 2 121 0.0 0.0 0.00 0.00 0.00 99 1019.5
20260508090156 2 141 0.0 0.0 0.00 0.00 0.00 99 1019.3
20260508085652 2 118 0.0 0.0 0.00 0.00 0.00 99 1019.2
20260508085149 2 113 0.0 0.0 0.00 0.00 0.00 99 1019.4
20260508084645 2 123 0.0 3.2 0.00 0.00 0.00 99 1019.2
20260508084142 2 113 3.2 4.8 0.00 0.00 0.00 99 1019.1
20260508083640 2 136 0.0 0.0 0.00 0.00 0.00 99 1019.2
20260508083137 2 114 0.0 0.0 0.00 0.00 0.00 99 1019.2
20260508082632 2 125 0.0 0.0 0.00 0.00 0.00 99 1019.1
20260508082129 2 101 0.0 0.0 0.00 0.00 0.00 99 1019.2
20260508081627 2 112 0.0 1.6 0.00 0.00 0.00 99 1019.1
20260508081123 2 108 1.6 3.2 0.00 0.00 0.00 99 1019.3
20260508080621 2 121 0.0 0.0 0.00 0.00 0.00 99 1019.1
20260508080119 2 124 0.0 0.0 0.00 0.00 0.00 99 1019.2
20260508075615 2 119 0.0 0.0 0.00 0.00 0.00 99 1019.4
20260508075112 2 121 0.0 0.0 0.00 0.00 0.00 99 1019.4
20260508074610 2 118 0.0 0.0 0.00 0.00 0.00 99 1019.1
20260508074106 2 109 0.0 0.0 0.00 0.00 0.00 99 1019.1
20260508073604 2 125 0.0 0.0 0.00 0.00 0.00 99 1018.9
20260508073102 2 113 0.0 0.0 0.00 0.00 0.00 99 1018.9
20260508072556 2 103 0.0 1.6 0.00 0.00 0.00 99 1019.0
20260508072054 3 115 0.0 1.6 0.00 0.00 0.00 99 1018.9
20260508071552 3 117 0.0 0.0 0.00 0.00 0.00 99 1018.8
20260508071050 3 119 0.0 0.0 0.00 0.00 0.00 99 1018.8
20260508070547 3 134 0.0 0.0 0.00 0.00 0.00 99 1019.0
20260508070045 3 136 0.0 0.0 0.00 0.00 0.00 99 1018.8
20260508065542 3 125 0.0 0.0 0.00 0.00 0.00 99 1019.0
20260508065041 3 109 0.0 0.0 0.00 0.00 0.00 99 1019.0
20260508064538 3 108 0.0 0.0 0.00 0.00 0.00 99 1019.0
20260508064036 3 165 0.0 0.0 0.00 0.00 0.00 99 1019.1
20260508063532 3 116 0.0 0.0 0.00 0.00 0.00 99 1019.0
20260508063031 3 115 0.0 0.0 0.00 0.00 0.00 99 1019.2
20260508062528 3 175 0.0 0.0 0.00 0.00 0.00 99 1019.1
20260508062024 3 160 0.0 0.0 0.00 0.00 0.00 99 1019.1
20260508061522 3 118 0.0 0.0 0.00 0.00 0.00 99 1019.0
20260508061019 3 118 0.0 0.0 0.00 0.00 0.00 99 1018.9
20260508060511 3 118 0.0 0.0 0.00 0.00 0.00 99 1019.0
20260508060008 3 123 0.0 0.0 0.00 0.00 0.00 99 1018.9
20260508055504 3 164 0.0 0.0 0.00 0.00 0.00 99 1018.9
20260508055000 3 116 0.0 0.0 0.00 0.00 0.00 99 1018.9
20260508054457 2 162 0.0 0.0 0.00 0.00 0.00 99 1018.8
20260508053954 2 125 0.0 0.0 0.00 0.00 0.00 99 1018.8
20260508053451 2 152 0.0 0.0 0.00 0.00 0.00 99 1018.8
20260508052949 2 151 0.0 0.0 0.00 0.00 0.00 99 1018.9
20260508052446 2 151 0.0 0.0 0.00 0.00 0.00 99 1018.7
20260508051943 2 151 0.0 0.0 0.00 0.00 0.00 98 1018.7
20260508051438 2 151 0.0 0.0 0.00 0.00 0.00 98 1018.6
20260508050934 2 151 0.0 0.0 0.00 0.00 0.00 98 1018.7
20260508050431 2 151 0.0 0.0 0.00 0.00 0.00 98 1018.5
20260508045927 2 151 0.0 0.0 0.00 0.00 0.00 98 1018.5
20260508045425 2 151 0.0 0.0 0.00 0.00 0.00 98 1018.4
20260508044922 3 151 0.0 0.0 0.00 0.00 0.00 98 1018.3
20260508044419 3 151 0.0 0.0 0.00 0.00 0.00 98 1018.5
20260508043914 3 112 0.0 0.0 0.00 0.00 0.00 99 1018.3
20260508043411 3 122 0.0 0.0 0.00 0.00 0.00 99 1018.4
20260508042908 3 122 0.0 0.0 0.00 0.00 0.00 98 1018.4
20260508042400 3 122 0.0 0.0 0.00 0.00 0.00 98 1018.4
20260508041857 3 130 0.0 0.0 0.00 0.00 0.00 98 1018.4
20260508041353 3 130 0.0 0.0 0.00 0.00 0.00 98 1018.2
20260508040849 3 181 0.0 0.0 0.00 0.00 0.00 98 1018.4
20260508040347 3 162 0.0 0.0 0.00 0.00 0.00 98 1018.1
20260508035844 4 141 0.0 0.0 0.00 0.00 0.00 98 1018.1
20260508035342 4 191 0.0 0.0 0.00 0.00 0.00 98 1018.1
20260508034838 4 157 0.0 0.0 0.00 0.00 0.00 98 1018.0
20260508034335 4 166 0.0 0.0 0.00 0.00 0.00 97 1017.9
20260508033832 4 182 0.0 0.0 0.00 0.00 0.00 98 1017.9
20260508033331 4 148 0.0 0.0 0.00 0.00 0.00 97 1018.0
20260508032828 4 173 0.0 0.0 0.00 0.00 0.00 97 1018.0
20260508032325 4 144 0.0 0.0 0.00 0.00 0.00 96 1018.1
20260508031821 5 144 0.0 0.0 0.00 0.00 0.00 96 1018.0
20260508031318 5 159 0.0 0.0 0.00 0.00 0.00 96 1017.5
20260508030814 5 157 0.0 0.0 0.00 0.00 0.00 96 1017.6
20260508030312 5 163 0.0 0.0 0.00 0.00 0.00 96 1017.6
20260508025808 5 163 0.0 0.0 0.00 0.00 0.00 96 1017.5
20260508025306 5 163 0.0 0.0 0.00 0.00 0.00 95 1017.4
20260508024801 5 142 0.0 0.0 0.00 0.00 0.00 96 1017.4
20260508024258 5 143 0.0 0.0 0.00 0.00 0.00 95 1017.2
20260508023755 5 143 0.0 0.0 0.00 0.00 0.00 94 1017.3
20260508023253 6 72 0.0 0.0 0.00 0.00 0.00 94 1017.0
20260508022748 6 121 0.0 0.0 0.00 0.00 0.00 93 1017.0
20260508022245 6 89 0.0 1.6 0.00 0.00 0.00 93 1017.1
20260508021742 6 24 0.0 0.0 0.00 0.00 0.00 92 1016.9
20260508021238 6 24 0.0 0.0 0.00 0.00 0.00 91 1016.9
20260508020735 6 24 0.0 0.0 0.00 0.00 0.00 91 1016.8
20260508020232 7 158 0.0 1.6 0.00 0.00 0.00 91 1016.7
20260508015724 7 219 0.0 0.0 0.00 0.00 0.00 90 1016.5
20260508015221 7 158 0.0 1.6 0.00 0.00 0.00 90 1016.5
20260508014718 7 161 0.0 0.0 0.00 0.00 0.00 90 1016.6
20260508014215 7 161 0.0 0.0 0.00 0.00 0.00 89 1016.7
20260508013710 7 161 0.0 0.0 0.00 0.00 0.00 88 1016.4
20260508013206 8 160 0.0 0.0 0.00 0.00 0.00 88 1016.4
20260508012705 8 126 0.0 0.0 0.00 0.00 0.00 87 1016.2
20260508012201 8 198 0.0 1.6 0.00 0.00 0.00 88 1016.2
20260508011700 8 168 0.0 0.0 0.00 0.00 0.00 86 1016.3
20260508011157 8 168 0.0 0.0 0.00 0.00 0.00 85 1016.1
20260508010653 8 168 0.0 1.6 0.00 0.00 0.00 84 1016.1
20260508010151 8 208 0.0 0.0 0.00 0.00 0.00 84 1016.0
20260508005648 8 218 0.0 0.0 0.00 0.00 0.00 82 1015.9
20260508005145 9 238 0.0 0.0 0.00 0.00 0.00 80 1016.1
20260508004640 9 257 0.0 0.0 0.00 0.00 0.00 79 1016.0
20260508004137 10 273 0.0 0.0 0.00 0.00 0.00 75 1015.9
20260508003633 10 247 0.0 0.0 0.00 0.00 0.00 72 1015.7
20260508003131 10 247 0.0 0.0 0.00 0.00 0.00 71 1015.4
20260508002627 11 249 0.0 0.0 0.00 0.00 0.00 69 1015.3
20260508002125 11 248 0.0 0.0 0.00 0.00 0.00 68 1015.3
20260508001620 11 253 0.0 0.0 0.00 0.00 0.00 67 1015.2
20260508001116 12 253 0.0 0.0 0.00 0.00 0.00 68 1015.3
20260508000612 12 273 0.0 0.0 0.00 0.00 0.00 64 1015.4
20260508000110 12 312 0.0 0.0 0.00 0.00 0.00 64 1015.3
20260507235607 12 285 0.0 0.0 0.00 0.00 0.00 62 1015.2
20260507235104 13 280 0.0 0.0 0.00 0.00 0.00 58 1015.3
20260507234600 13 272 0.0 0.0 0.00 0.00 0.00 59 1015.1
20260507234057 13 309 3.2 3.2 0.00 0.00 0.00 56 1015.2
20260507233554 13 299 0.0 4.8 0.00 0.00 0.00 58 1015.0
20260507233053 13 314 0.0 3.2 0.00 0.00 0.00 56 1015.2
20260507232548 14 1 4.8 9.7 0.00 0.00 0.00 53 1015.2
20260507232046 14 336 3.2 6.4 0.00 0.00 0.00 54 1015.0
20260507231542 14 310 4.8 9.7 0.00 0.00 0.00 53 1015.2
20260507231040 14 310 4.8 9.7 0.00 0.00 0.00 52 1015.0
20260507230536 14 289 1.6 6.4 0.00 0.00 0.00 54 1015.0
20260507230033 15 310 14.5 14.5 0.00 0.00 0.00 52 1015.0
20260507225533 15 276 1.6 12.9 0.00 0.00 0.00 55 1014.8
20260507225029 15 313 8.0 12.9 0.00 0.00 0.00 54 1014.7
20260507224525 15 327 3.2 12.9 0.00 0.00 0.00 54 1014.7
20260507224022 15 330 8.0 12.9 0.00 0.00 0.00 55 1014.7
20260507223518 15 27 8.0 11.3 0.00 0.00 0.00 55 1014.7
20260507223015 15 279 3.2 11.3 0.00 0.00 0.00 54 1014.5
20260507222513 15 269 3.2 6.4 0.00 0.00 0.00 56 1014.6
20260507222008 15 264 1.6 4.8 0.00 0.00 0.00 55 1014.6
20260507221505 15 301 3.2 12.9 0.00 0.00 0.00 53 1014.6
20260507221002 15 295 1.6 4.8 0.00 0.00 0.00 55 1014.5
20260507220459 15 289 1.6 4.8 0.00 0.00 0.00 61 1014.5
20260507215956 15 293 3.2 4.8 0.00 0.00 0.00 55 1014.4
20260507215452 15 291 3.2 6.4 0.00 0.00 0.00 57 1014.3
20260507214950 15 311 4.8 6.4 0.00 0.00 0.00 59 1014.3
20260507214447 15 305 1.6 3.2 0.00 0.00 0.00 57 1014.2
20260507213943 15 313 1.6 3.2 0.00 0.00 0.00 59 1014.2
20260507213439 15 327 3.2 9.7 0.00 0.00 0.00 56 1014.3
20260507212936 15 307 4.8 6.4 0.00 0.00 0.00 55 1014.1
20260507212432 15 317 9.7 11.3 0.00 0.00 0.00 56 1014.2
20260507211929 15 318 3.2 12.9 0.00 0.00 0.00 55 1014.0
20260507211426 15 21 4.8 12.9 0.00 0.00 0.00 53 1013.9
20260507210923 16 310 6.4 14.5 0.00 0.00 0.00 53 1013.8
20260507210420 17 256 3.2 9.7 0.00 0.00 0.00 55 1013.9
20260507205916 16 283 1.6 9.7 0.00 0.00 0.00 57 1013.8
20260507205414 16 313 3.2 6.4 0.00 0.00 0.00 53 1013.8
20260507204909 16 306 1.6 4.8 0.00 0.00 0.00 54 1013.9
20260507204406 16 6 4.8 4.8 0.00 0.00 0.00 55 1014.1
20260507203904 16 280 6.4 6.4 0.00 0.00 0.00 54 1013.8
20260507203402 15 281 6.4 9.7 0.00 0.00 0.00 57 1014.0
20260507202858 16 340 8.0 12.9 0.00 0.00 0.00 54 1013.9
20260507202354 16 305 4.8 9.7 0.00 0.00 0.00 55 1014.2
20260507201850 16 335 3.2 4.8 0.00 0.00 0.00 55 1014.0
20260507201346 16 285 3.2 4.8 0.00 0.00 0.00 60 1014.1
20260507200842 15 345 4.8 9.7 0.00 0.00 0.00 63 1014.3
20260507200338 16 1 1.6 16.1 0.00 0.00 0.00 56 1014.3
20260507195834 16 311 6.4 9.7 0.00 0.00 0.00 61 1014.4
20260507195332 15 247 0.0 0.0 0.00 0.00 0.00 63 1014.3
20260507194829 14 340 3.2 4.8 0.00 0.00 0.00 65 1014.5
20260507194325 14 315 1.6 9.7 0.00 0.00 0.00 65 1014.2
20260507193822 14 315 3.2 6.4 0.00 0.00 0.00 64 1014.3
20260507193319 14 320 4.8 11.3 0.00 0.00 0.00 66 1014.4
20260507192814 14 326 8.0 11.3 0.00 0.00 0.00 63 1014.4
20260507192312 14 9 6.4 9.7 0.00 0.00 0.00 62 1014.4
20260507191808 15 286 1.6 11.3 0.00 0.00 0.00 63 1014.4
20260507191304 15 313 6.4 6.4 0.00 0.00 0.00 59 1014.4
20260507190801 15 5 3.2 16.1 0.00 0.00 0.00 60 1014.4
20260507190300 15 47 4.8 6.4 0.00 0.00 0.00 61 1014.5
20260507185758 15 10 6.4 11.3 0.00 0.00 0.00 62 1014.5
20260507185254 15 323 6.4 9.7 0.00 0.00 0.00 57 1014.6
20260507184752 15 330 1.6 3.2 0.00 0.00 0.00 56 1014.6
20260507184250 15 295 1.6 4.8 0.00 0.00 0.00 60 1014.7
20260507183747 16 311 0.0 4.8 0.00 0.00 0.00 58 1014.6
20260507183244 16 52 0.0 6.4 0.00 0.00 0.00 60 1014.8
20260507182742 16 30 4.8 6.4 0.00 0.00 0.00 61 1014.6
20260507182241 15 325 3.2 9.7 0.00 0.00 0.00 64 1014.5
20260507181739 15 298 6.4 11.3 0.00 0.00 0.00 59 1014.4
20260507181235 15 269 1.6 1.6 0.00 0.00 0.00 62 1014.5
20260507180732 14 285 0.0 9.7 0.00 0.00 0.00 63 1014.6
20260507180229 14 266 4.8 9.7 0.00 0.00 0.00 63 1014.5
20260507175724 14 300 0.0 1.6 0.00 0.00 0.00 64 1014.6
20260507175221 14 256 3.2 3.2 0.00 0.00 0.00 67 1014.8
20260507174719 14 263 1.6 6.4 0.00 0.00 0.00 68 1014.9
20260507174217 14 274 3.2 4.8 0.00 0.00 0.00 64 1014.7
20260507173714 15 313 1.6 3.2 0.00 0.00 0.00 67 1014.5
20260507173211 14 267 0.0 4.8 0.00 0.00 0.00 67 1014.7
20260507172707 14 338 1.6 3.2 0.00 0.00 0.00 64 1014.8
20260507172204 14 256 3.2 3.2 0.00 0.00 0.00 69 1014.8
20260507171704 14 308 1.6 3.2 0.00 0.00 0.00 65 1014.8
20260507171202 13 332 3.2 4.8 0.00 0.00 0.00 62 1014.8
20260507170659 14 317 6.4 11.3 0.00 0.00 0.00 63 1015.0
20260507170156 13 251 3.2 4.8 0.00 0.00 0.00 66 1015.0
20260507165651 14 327 6.4 11.3 0.00 0.00 0.00 65 1015.0
20260507165148 14 328 4.8 12.9 0.00 0.00 0.00 62 1014.8
20260507164644 14 328 8.0 11.3 0.00 0.00 0.00 65 1014.9
20260507164141 15 24 1.6 6.4 0.00 0.00 0.00 63 1015.0
20260507163638 15 311 1.6 1.6 0.00 0.00 0.00 64 1015.1
20260507163136 15 248 4.8 6.4 0.00 0.00 0.00 72 1015.3
20260507162631 15 305 1.6 3.2 0.00 0.00 0.00 66 1015.3
20260507162128 15 265 0.0 1.6 0.00 0.00 0.00 69 1015.2
20260507161624 15 294 0.0 3.2 0.00 0.00 0.00 67 1015.3
20260507161121 14 262 0.0 1.6 0.00 0.00 0.00 71 1015.3
20260507160617 14 42 0.0 3.2 0.00 0.00 0.00 69 1015.3
20260507160114 13 269 0.0 9.7 0.00 0.00 0.00 67 1015.7
20260507155609 13 333 1.6 1.6 0.00 0.00 0.00 70 1015.4
20260507155106 13 249 1.6 1.6 0.00 0.00 0.00 71 1015.3
20260507154603 13 286 1.6 1.6 0.00 0.00 0.00 70 1015.5
20260507154100 13 213 0.0 1.6 0.00 0.00 0.00 68 1015.5
20260507153557 13 238 4.8 6.4 0.00 0.00 0.00 73 1015.8
20260507153054 12 311 0.0 3.2 0.00 0.00 0.00 71 1015.5
20260507152550 12 7 0.0 1.6 0.00 0.00 0.00 70 1015.7
20260507152046 13 303 1.6 3.2 0.00 0.00 0.00 74 1015.8
20260507151542 13 35 3.2 3.2 0.00 0.00 0.00 74 1015.9
20260507151039 12 346 1.6 3.2 0.00 0.00 0.00 72 1015.9
20260507150536 12 290 1.6 3.2 0.00 0.00 0.00 74 1015.7
20260507150033 12 45 1.6 3.2 0.00 0.00 0.00 75 1015.8
20260507145527 12 241 0.0 3.2 0.00 0.00 0.00 80 1015.8
20260507145026 12 261 0.0 1.6 0.00 0.00 0.00 78 1016.0
20260507144522 12 324 1.6 3.2 0.00 0.00 0.00 79 1015.7
20260507144020 11 268 0.0 0.0 0.00 0.00 0.00 80 1016.0
20260507143517 11 301 0.0 3.2 0.00 0.00 0.00 81 1016.1
20260507143014 11 259 0.0 0.0 0.00 0.00 0.00 85 1015.7
20260507142509 11 262 0.0 0.0 0.00 0.00 0.00 85 1015.8
20260507142007 11 316 1.6 3.2 0.00 0.00 0.00 82 1016.0
20260507141502 11 288 0.0 1.6 0.00 0.00 0.00 82 1016.1
20260507140959 11 251 0.0 0.0 0.00 0.00 0.00 83 1016.0
20260507140456 11 247 0.0 0.0 0.00 0.00 0.00 83 1016.1
20260507135953 11 323 0.0 1.6 0.00 0.00 0.00 84 1016.0
20260507135450 11 305 0.0 0.0 0.00 0.00 0.00 84 1016.4
20260507134948 11 341 0.0 1.6 0.00 0.00 0.00 83 1016.2
20260507134444 11 359 0.0 0.0 0.00 0.00 0.00 84 1016.4
20260507133940 10 318 1.6 3.2 0.00 0.00 0.00 84 1016.3
20260507133436 10 340 0.0 0.0 0.00 0.00 0.00 86 1016.4
20260507132935 10 340 0.0 0.0 0.00 0.00 0.00 86 1016.5
20260507132430 10 340 0.0 0.0 0.00 0.00 0.00 87 1016.2
20260507131927 10 263 0.0 0.0 0.00 0.00 0.00 88 1016.5
20260507131424 10 281 0.0 0.0 0.00 0.00 0.00 88 1016.5
20260507130921 10 284 0.0 1.6 0.00 0.00 0.00 87 1016.5
20260507130418 10 289 0.0 1.6 0.00 0.00 0.00 87 1016.4
20260507125917 10 312 1.6 1.6 0.00 0.00 0.00 87 1016.5
20260507125415 10 315 0.0 0.0 0.00 0.00 0.00 87 1016.5
20260507124912 10 315 0.0 0.0 0.00 0.00 0.00 86 1016.5
20260507124408 10 306 0.0 1.6 0.00 0.00 0.00 85 1016.5
20260507123906 10 286 0.0 1.6 0.00 0.00 0.00 86 1016.6
20260507123403 10 278 0.0 0.0 0.00 0.00 0.00 87 1016.6
20260507122859 10 321 1.6 3.2 0.00 0.00 0.00 86 1016.3
20260507122355 10 296 0.0 0.0 0.00 0.00 0.00 87 1016.2
20260507121851 10 242 0.0 0.0 0.00 0.00 0.00 88 1016.3
20260507121347 10 266 0.0 0.0 0.00 0.00 0.00 86 1016.3
20260507120844 10 334 0.0 0.0 0.00 0.00 0.00 87 1016.2
20260507120340 10 348 0.0 0.0 0.00 0.00 0.00 86 1016.1
20260507115836 10 20 0.0 0.0 0.00 0.00 0.00 86 1016.0
20260507115332 10 325 0.0 3.2 0.00 0.00 0.00 85 1016.3
20260507114828 10 330 1.6 3.2 0.00 0.00 0.00 85 1016.2
20260507114325 10 6 0.0 0.0 0.00 0.00 0.00 86 1016.0
20260507113823 10 26 6.4 9.7 0.00 0.00 0.00 85 1016.0
20260507113319 10 41 0.0 0.0 0.00 0.00 0.00 89 1015.9
20260507112817 10 294 0.0 0.0 0.00 0.00 0.00 89 1016.2
20260507112314 10 255 0.0 0.0 0.00 0.00 0.00 90 1016.0
20260507111812 10 255 0.0 0.0 0.00 0.00 0.00 90 1015.8
20260507111308 10 257 1.6 1.6 0.00 0.00 0.00 89 1016.0
20260507110804 10 312 0.0 0.0 0.00 0.00 0.00 89 1015.7
20260507110301 10 313 0.0 1.6 0.00 0.00 0.00 90 1015.7
20260507105758 10 319 0.0 3.2 0.00 0.00 0.00 90 1015.5
20260507105254 10 241 0.0 0.0 0.00 0.00 0.00 92 1015.4
20260507104751 10 323 3.2 6.4 0.00 0.00 0.00 90 1015.5
20260507104248 10 279 0.0 3.2 0.00 0.00 0.00 92 1015.8
20260507103744 10 323 0.0 1.6 0.00 0.00 0.00 94 1015.5
20260507103240 10 334 3.2 3.2 0.00 0.00 0.00 95 1015.2
20260507102737 10 338 1.6 3.2 0.00 0.00 0.00 95 1015.3